Midpoint, URN, Start Time, Stop Time, Target_name, Target_lid_reference, sub_solar_latitude, sub_solar_longitude, subspacecraft_latitude, subspacecraft_longitude, target_center_distance, spacecraft_altitude, juno:L_Band_geom:minimum_latitude, juno:L_Band_geom:maximum_latitude, juno:L_Band_geom:minimum_longitude, juno:L_Band_geom:maximum_longitude, juno:L_Band_geom:horizontal_pixel_footprint, juno:L_Band_geom:vertical_pixel_footprint, juno:L_Band_geom:incidence_angle, juno:L_Band_geom:emission_angle, juno:L_Band_geom:phase_angle,juno:M_Band_geom:minimum_latitude, juno:M_Band_geom:maximum_latitude, juno:M_Band_geom:minimum_longitude, juno:M_Band_geom:maximum_longitude, juno:M_Band_geom:horizontal_pixel_footprint, juno:M_Band_geom:vertical_pixel_footprint, juno:M_Band_geom:incidence_angle, juno:M_Band_geom:emission_angle, juno:M_Band_geom:phase_angle, File Size, path
2021-07-21T06:32:16.00Z,urn:nasa:pds:juno_jiram:data_calibrated:jir_img_rdr_2021202t063218_v01,2021-07-21T06:32:15.990Z,2021-07-21T06:32:16.005Z,JUPITER,urn:nasa:pds:context:target:planet.jupiter,0.38296,159.1243,38.8851,282.9524,225602.1192,156052.6916,2.5232,11.881,341.017,353.8894,37452.646,37452.646,,,,6.802,11.8784,347.875,357.0775,37427.0904,37427.0904,,,,0.438,/home/atmos7/PDS/JUNO/PDS4/JIRAM/juno_jiram_bundle/data_calibrated/orbit35/JIR_IMG_RDR_2021202T063218_V01.IMG
2021-07-21T06:32:46.34Z,urn:nasa:pds:juno_jiram:data_calibrated:jir_img_rdr_2021202t063248_v01,2021-07-21T06:32:46.335Z,2021-07-21T06:32:46.350Z,JUPITER,urn:nasa:pds:context:target:planet.jupiter,0.38296,158.8185,39.0272,282.5985,224784.0065,155246.0373,-0.1753,12.0086,335.879,350.6693,37259.049,37259.049,,,,3.2885,13.4091,340.607,354.7245,37233.4881,37233.4881,,,,0.438,/home/atmos7/PDS/JUNO/PDS4/JIRAM/juno_jiram_bundle/data_calibrated/orbit35/JIR_IMG_RDR_2021202T063248_V01.IMG
2021-07-21T06:33:16.68Z,urn:nasa:pds:juno_jiram:data_calibrated:jir_img_rdr_2021202t063319_v01,2021-07-21T06:33:16.677Z,2021-07-21T06:33:16.692Z,JUPITER,urn:nasa:pds:context:target:planet.jupiter,0.38297,158.5128,39.1704,282.2441,223965.1581,154438.7347,-3.2602,10.9011,331.849,347.2595,37065.2963,37065.2963,,,,0.56185,13.5721,335.48,351.2242,37039.7315,37039.7315,,,,0.438,/home/atmos7/PDS/JUNO/PDS4/JIRAM/juno_jiram_bundle/data_calibrated/orbit35/JIR_IMG_RDR_2021202T063319_V01.IMG
2021-07-21T06:33:47.30Z,urn:nasa:pds:juno_jiram:data_calibrated:jir_img_rdr_2021202t063349_v01,2021-07-21T06:33:47.020Z,2021-07-21T06:33:47.035Z,JUPITER,urn:nasa:pds:context:target:planet.jupiter,0.38297,158.2071,39.3146,281.8891,223145.4654,153630.6773,-6.2329,9.1444,328.493,343.5513,36871.3626,36871.3626,,,,-2.6397,12.5332,331.312,347.684,36845.7953,36845.7953,,,,0.438,/home/atmos7/PDS/JUNO/PDS4/JIRAM/juno_jiram_bundle/data_calibrated/orbit35/JIR_IMG_RDR_2021202T063349_V01.IMG
2021-07-21T06:34:17.37Z,urn:nasa:pds:juno_jiram:data_calibrated:jir_img_rdr_2021202t063419_v01,2021-07-21T06:34:17.361Z,2021-07-21T06:34:17.376Z,JUPITER,urn:nasa:pds:context:target:planet.jupiter,0.38297,157.9014,39.4598,281.5336,222325.0092,152821.9457,-8.6128,6.9634,325.749,340.4473,36677.267,36677.267,,,,-4.9399,10.9334,327.862,343.5515,36651.6987,36651.6987,,,,0.438,/home/atmos7/PDS/JUNO/PDS4/JIRAM/juno_jiram_bundle/data_calibrated/orbit35/JIR_IMG_RDR_2021202T063419_V01.IMG
2021-07-21T06:34:47.71Z,urn:nasa:pds:juno_jiram:data_calibrated:jir_img_rdr_2021202t063450_v01,2021-07-21T06:34:47.702Z,2021-07-21T06:34:47.717Z,JUPITER,urn:nasa:pds:context:target:planet.jupiter,0.38297,157.5957,39.6061,281.1775,221503.7083,152012.4606,-11.1928,4.3021,323.579,336.5894,36482.9905,36482.9905,,,,-7.6197,8.8827,324.921,340.7761,36457.4228,36457.4228,,,,0.438,/home/atmos7/PDS/JUNO/PDS4/JIRAM/juno_jiram_bundle/data_calibrated/orbit35/JIR_IMG_RDR_2021202T063450_V01.IMG
2021-07-21T06:35:18.50Z,urn:nasa:pds:juno_jiram:data_calibrated:jir_img_rdr_2021202t063520_v01,2021-07-21T06:35:18.044Z,2021-07-21T06:35:18.059Z,JUPITER,urn:nasa:pds:context:target:planet.jupiter,0.38297,157.29,39.7535,280.8208,220681.5892,151202.2488,-13.6443,1.0784,322.045,332.5378,36288.5397,36288.5397,,,,-10.274,6.423,322.489,336.9319,36262.974,36262.974,,,,0.438,/home/atmos7/PDS/JUNO/PDS4/JIRAM/juno_jiram_bundle/data_calibrated/orbit35/JIR_IMG_RDR_2021202T063520_V01.IMG
2021-07-21T06:35:48.39Z,urn:nasa:pds:juno_jiram:data_calibrated:jir_img_rdr_2021202t063550_v01,2021-07-21T06:35:48.386Z,2021-07-21T06:35:48.401Z,JUPITER,urn:nasa:pds:context:target:planet.jupiter,0.38297,156.9843,39.9019,280.4635,219858.6513,150391.3107,-15.6976,-2.9646,320.61,328.7291,36093.9146,36093.9146,,,,-12.4958,3.5293,320.615,333.2306,36068.3524,36068.3524,,,,0.438,/home/atmos7/PDS/JUNO/PDS4/JIRAM/juno_jiram_bundle/data_calibrated/orbit35/JIR_IMG_RDR_2021202T063550_V01.IMG
2021-07-21T06:37:18.22Z,urn:nasa:pds:juno_jiram:data_calibrated:jir_img_rdr_2021202t063720_v01,2021-07-21T06:37:18.214Z,2021-07-21T06:37:18.229Z,JUPITER,urn:nasa:pds:context:target:planet.jupiter,0.38298,156.0792,40.3478,279.402,217417.531,147986.2658,3.1816,21.1537,328.432,349.8473,35516.7038,35516.7038,,,,7.2872,22.9738,333.16,353.5411,35491.1615,35491.1615,,,,0.438,/home/atmos7/PDS/JUNO/PDS4/JIRAM/juno_jiram_bundle/data_calibrated/orbit35/JIR_IMG_RDR_2021202T063720_V01.IMG
2021-07-21T06:37:48.61Z,urn:nasa:pds:juno_jiram:data_calibrated:jir_img_rdr_2021202t063751_v01,2021-07-21T06:37:48.606Z,2021-07-21T06:37:48.621Z,JUPITER,urn:nasa:pds:context:target:planet.jupiter,0.38298,155.773,40.5009,279.0416,216589.9889,147171.1179,0.14912,19.076,323.383,345.1715,35321.0683,35321.0683,,,,2.9118,21.6698,327.089,349.1883,35295.536,35295.536,,,,0.438,/home/atmos7/PDS/JUNO/PDS4/JIRAM/juno_jiram_bundle/data_calibrated/orbit35/JIR_IMG_RDR_2021202T063751_V01.IMG
2021-07-21T06:38:19.00Z,urn:nasa:pds:juno_jiram:data_calibrated:jir_img_rdr_2021202t063821_v01,2021-07-21T06:38:18.998Z,2021-07-21T06:38:19.013Z,JUPITER,urn:nasa:pds:context:target:planet.jupiter,0.38298,155.4667,40.6552,278.6805,215761.6254,146355.2455,-4.3953,16.3993,319.199,340.0533,35125.2589,35125.2589,,,,-1.2122,19.5091,322.168,344.7516,35099.7383,35099.7383,,,,0.438,/home/atmos7/PDS/JUNO/PDS4/JIRAM/juno_jiram_bundle/data_calibrated/orbit35/JIR_IMG_RDR_2021202T063821_V01.IMG
2021-07-21T06:38:49.39Z,urn:nasa:pds:juno_jiram:data_calibrated:jir_img_rdr_2021202t063851_v01,2021-07-21T06:38:49.389Z,2021-07-21T06:38:49.404Z,JUPITER,urn:nasa:pds:context:target:planet.jupiter,0.38298,155.1605,40.8106,278.3188,214932.4682,145538.6766,-7.9639,13.2595,315.704,335.6483,34929.2824,34929.2824,,,,-4.4567,16.8303,318.076,340.1107,34903.7753,34903.7753,,,,0.438,/home/atmos7/PDS/JUNO/PDS4/JIRAM/juno_jiram_bundle/data_calibrated/orbit35/JIR_IMG_RDR_2021202T063851_V01.IMG
2021-07-21T06:39:19.78Z,urn:nasa:pds:juno_jiram:data_calibrated:jir_img_rdr_2021202t063922_v01,2021-07-21T06:39:19.779Z,2021-07-21T06:39:19.794Z,JUPITER,urn:nasa:pds:context:target:planet.jupiter,0.38299,154.8543,40.9671,277.9564,214102.5173,144721.412,-10.8652,9.627,312.82,331.1248,34733.1389,34733.1389,,,,-7.6526,13.7141,314.633,335.1889,34707.6471,34707.6471,,,,0.438,/home/atmos7/PDS/JUNO/PDS4/JIRAM/juno_jiram_bundle/data_calibrated/orbit35/JIR_IMG_RDR_2021202T063922_V01.IMG
2021-07-21T06:39:50.18Z,urn:nasa:pds:juno_jiram:data_calibrated:jir_img_rdr_2021202t063952_v01,2021-07-21T06:39:50.170Z,2021-07-21T06:39:50.185Z,JUPITER,urn:nasa:pds:context:target:planet.jupiter,0.38299,154.5481,41.1249,277.5932,213271.7184,143903.3992,-14.1804,5.2855,310.609,325.6827,34536.8158,34536.8158,,,,-10.7098,10.0782,311.751,330.2311,34511.341,34511.341,,,,0.438,/home/atmos7/PDS/JUNO/PDS4/JIRAM/juno_jiram_bundle/data_calibrated/orbit35/JIR_IMG_RDR_2021202T063952_V01.IMG
2021-07-21T06:41:20.00Z,urn:nasa:pds:juno_jiram:data_calibrated:jir_img_rdr_2021202t064122_v01,2021-07-21T06:41:19.999Z,2021-07-21T06:41:20.014Z,JUPITER,urn:nasa:pds:context:target:planet.jupiter,0.38299,153.643,41.5983,276.5156,210811.271,141481.3331,3.8202,26.0379,320.644,346.2739,33955.5199,33955.5199,164.9396,77.8404,94.745,7.5841,28.2289,324.862,349.9977,33930.1066,33930.1066,161.8543,85.4334,94.8667,0.442,/home/atmos7/PDS/JUNO/PDS4/JIRAM/juno_jiram_bundle/data_calibrated/orbit35/JIR_IMG_RDR_2021202T064122_V01.IMG
2021-07-21T06:41:50.40Z,urn:nasa:pds:juno_jiram:data_calibrated:jir_img_rdr_2021202t064152_v01,2021-07-21T06:41:50.393Z,2021-07-21T06:41:50.408Z,JUPITER,urn:nasa:pds:context:target:planet.jupiter,0.38299,153.3368,41.7609,276.1495,209977.1489,140660.3993,0.10464,23.7594,315.98,341.9799,33758.4958,33758.4958,165.881,73.3879,94.5973,3.8052,26.397,319.425,345.6726,33733.1071,33733.1071,163.7743,75.3546,94.7255,0.442,/home/atmos7/PDS/JUNO/PDS4/JIRAM/juno_jiram_bundle/data_calibrated/orbit35/JIR_IMG_RDR_2021202T064152_V01.IMG
2021-07-21T06:42:20.79Z,urn:nasa:pds:juno_jiram:data_calibrated:jir_img_rdr_2021202t064223_v01,2021-07-21T06:42:20.785Z,2021-07-21T06:42:20.800Z,JUPITER,urn:nasa:pds:context:target:planet.jupiter,0.383,153.0306,41.9248,275.7826,209142.2643,139838.8058,-3.1018,21.1488,312.022,337.3678,33561.3134,33561.3134,166.1528,71.8002,94.446,0.35407,24.1226,314.891,341.2655,33535.9512,33535.9512,164.4372,71.605,94.5802,0.442,/home/atmos7/PDS/JUNO/PDS4/JIRAM/juno_jiram_bundle/data_calibrated/orbit35/JIR_IMG_RDR_2021202T064223_V01.IMG
2021-07-21T06:42:51.18Z,urn:nasa:pds:juno_jiram:data_calibrated:jir_img_rdr_2021202t064253_v01,2021-07-21T06:42:51.175Z,2021-07-21T06:42:51.190Z,JUPITER,urn:nasa:pds:context:target:planet.jupiter,0.383,152.7244,42.0899,275.4149,208306.6181,139016.554,-6.427,18.2549,308.621,332.5008,33363.973,33363.973,165.9363,72.2906,94.2884,-3.2275,21.5398,311.031,336.6265,33338.6394,33338.6394,164.6217,70.2581,94.4282,0.442,/home/atmos7/PDS/JUNO/PDS4/JIRAM/juno_jiram_bundle/data_calibrated/orbit35/JIR_IMG_RDR_2021202T064253_V01.IMG
2021-07-21T06:43:21.57Z,urn:nasa:pds:juno_jiram:data_calibrated:jir_img_rdr_2021202t064323_v01,2021-07-21T06:43:21.568Z,2021-07-21T06:43:21.583Z,JUPITER,urn:nasa:pds:context:target:planet.jupiter,0.383,152.4182,42.2564,275.0464,207470.0738,138193.5108,-9.3122,14.9557,305.612,327.7743,33166.4426,33166.4426,165.1851,75.0639,94.1227,-6.6069,18.592,307.62,332.006,33141.1397,33141.1397,164.4369,70.8387,94.268,0.442,/home/atmos7/PDS/JUNO/PDS4/JIRAM/juno_jiram_bundle/data_calibrated/orbit35/JIR_IMG_RDR_2021202T064323_V01.IMG
2021-07-21T06:43:51.96Z,urn:nasa:pds:juno_jiram:data_calibrated:jir_img_rdr_2021202t064354_v01,2021-07-21T06:43:51.958Z,2021-07-21T06:43:51.973Z,JUPITER,urn:nasa:pds:context:target:planet.jupiter,0.383,152.112,42.4241,274.6771,206632.7973,137369.8399,-12.2538,11.3077,303.042,322.4736,32968.7616,32968.7616,163.4154,81.6105,93.954,-9.246,15.3802,304.67,327.1291,32943.4915,32943.4915,163.7889,73.4016,94.1048,0.442,/home/atmos7/PDS/JUNO/PDS4/JIRAM/juno_jiram_bundle/data_calibrated/orbit35/JIR_IMG_RDR_2021202T064354_V01.IMG
2021-07-21T06:45:21.79Z,urn:nasa:pds:juno_jiram:data_calibrated:jir_img_rdr_2021202t064524_v01,2021-07-21T06:45:21.789Z,2021-07-21T06:45:21.804Z,JUPITER,urn:nasa:pds:context:target:planet.jupiter,0.38301,151.2069,42.9278,273.5803,204153.1078,134930.9962,4.6106,30.2476,313.617,342.7502,32383.4391,32383.4391,155.3261,65.087,94.6667,7.8916,32.5555,317.499,346.7926,32358.2785,32358.2785,153.989,67.9612,94.7922,0.442,/home/atmos7/PDS/JUNO/PDS4/JIRAM/juno_jiram_bundle/data_calibrated/orbit35/JIR_IMG_RDR_2021202T064524_V01.IMG
2021-07-21T06:45:52.19Z,urn:nasa:pds:juno_jiram:data_calibrated:jir_img_rdr_2021202t064554_v01,2021-07-21T06:45:52.184Z,2021-07-21T06:45:52.199Z,JUPITER,urn:nasa:pds:context:target:planet.jupiter,0.38301,150.9006,43.101,273.2074,203312.4837,134104.4079,1.0634,27.9423,309.239,338.5143,32185.0579,32185.0579,155.5624,62.4679,94.5146,4.4075,30.548,312.48,342.0784,32159.9388,32159.9388,154.3829,63.745,94.6461,0.442,/home/atmos7/PDS/JUNO/PDS4/JIRAM/juno_jiram_bundle/data_calibrated/orbit35/JIR_IMG_RDR_2021202T064554_V01.IMG
2021-07-21T06:46:22.58Z,urn:nasa:pds:juno_jiram:data_calibrated:jir_img_rdr_2021202t064624_v01,2021-07-21T06:46:22.576Z,2021-07-21T06:46:22.591Z,JUPITER,urn:nasa:pds:context:target:planet.jupiter,0.38301,150.5944,43.2755,272.8336,202471.1342,133277.2031,-2.0152,25.4351,305.475,334.1196,31986.5288,31986.5288,155.61,61.359,94.3591,1.3865,28.2768,308.232,337.8399,31961.4534,31961.4534,154.5552,61.3303,94.4963,0.442,/home/atmos7/PDS/JUNO/PDS4/JIRAM/juno_jiram_bundle/data_calibrated/orbit35/JIR_IMG_RDR_2021202T064624_V01.IMG
2021-07-21T06:46:52.97Z,urn:nasa:pds:juno_jiram:data_calibrated:jir_img_rdr_2021202t064655_v01,2021-07-21T06:46:52.968Z,2021-07-21T06:46:52.983Z,JUPITER,urn:nasa:pds:context:target:planet.jupiter,0.38301,150.2882,43.4514,272.4588,201628.9794,132449.304,-5.1459,22.6996,302.146,329.4803,31787.833,31787.833,155.5186,61.5978,94.1968,-2.1475,25.7675,304.517,333.2575,31762.8037,31762.8037,154.5848,60.3246,94.3395,0.442,/home/atmos7/PDS/JUNO/PDS4/JIRAM/juno_jiram_bundle/data_calibrated/orbit35/JIR_IMG_RDR_2021202T064655_V01.IMG
2021-07-21T06:47:23.37Z,urn:nasa:pds:juno_jiram:data_calibrated:jir_img_rdr_2021202t064725_v01,2021-07-21T06:47:23.360Z,2021-07-21T06:47:23.375Z,JUPITER,urn:nasa:pds:context:target:planet.jupiter,0.38301,149.982,43.6288,272.0831,200786.0206,131620.713,-7.6367,19.7263,299.176,324.7381,31588.9711,31588.9711,155.2821,63.1861,94.0287,-5.2912,23.0431,301.224,328.6402,31563.9903,31563.9903,154.4851,60.6176,94.1768,0.442,/home/atmos7/PDS/JUNO/PDS4/JIRAM/juno_jiram_bundle/data_calibrated/orbit35/JIR_IMG_RDR_2021202T064725_V01.IMG
2021-07-21T06:47:53.76Z,urn:nasa:pds:juno_jiram:data_calibrated:jir_img_rdr_2021202t064756_v01,2021-07-21T06:47:53.751Z,2021-07-21T06:47:53.766Z,JUPITER,urn:nasa:pds:context:target:planet.jupiter,0.38301,149.6757,43.8076,271.7064,199942.26,130791.4329,-10.4549,16.4688,296.515,319.799,31389.9439,31389.9439,154.8711,66.2788,93.855,-7.7687,20.0897,298.28,323.9381,31365.014,31365.014,154.2547,62.2169,94.0082,0.442,/home/atmos7/PDS/JUNO/PDS4/JIRAM/juno_jiram_bundle/data_calibrated/orbit35/JIR_IMG_RDR_2021202T064756_V01.IMG
2021-07-21T06:49:23.59Z,urn:nasa:pds:juno_jiram:data_calibrated:jir_img_rdr_2021202t064925_v01,2021-07-21T06:49:23.584Z,2021-07-21T06:49:23.599Z,JUPITER,urn:nasa:pds:context:target:planet.jupiter,0.38302,148.7706,44.3448,270.5868,197443.5975,128336.2393,14.2151,34.1157,306.999,332.5907,30800.6974,30800.6974,147.7318,56.7788,94.5806,11.462,36.4523,310.62,343.4784,30775.9325,30775.9325,146.7893,59.0443,94.7095,0.442,/home/atmos7/PDS/JUNO/PDS4/JIRAM/juno_jiram_bundle/data_calibrated/orbit35/JIR_IMG_RDR_2021202T064925_V01.IMG
2021-07-21T06:49:53.98Z,urn:nasa:pds:juno_jiram:data_calibrated:jir_img_rdr_2021202t064956_v01,2021-07-21T06:49:53.979Z,2021-07-21T06:49:53.994Z,JUPITER,urn:nasa:pds:context:target:planet.jupiter,0.38302,148.4644,44.5296,270.2058,196596.6041,127504.1822,13.1259,31.8525,302.86,324.9825,30601.0037,30601.0037,147.7962,54.6129,94.4253,15.5027,34.3983,305.926,330.0297,30576.2997,30576.2997,146.9325,55.7317,94.5601,0.442,/home/atmos7/PDS/JUNO/PDS4/JIRAM/juno_jiram_bundle/data_calibrated/orbit35/JIR_IMG_RDR_2021202T064956_V01.IMG
2021-07-21T06:50:24.38Z,urn:nasa:pds:juno_jiram:data_calibrated:jir_img_rdr_2021202t065026_v01,2021-07-21T06:50:24.371Z,2021-07-21T06:50:24.386Z,JUPITER,urn:nasa:pds:context:target:planet.jupiter,0.38302,148.1581,44.7159,269.8237,195748.905,126671.5347,11.0153,29.4623,299.263,319.5079,30401.1683,30401.1683,147.7601,53.6186,94.2663,14.2193,32.1791,301.906,323.1958,30376.5277,30376.5277,146.9611,53.6932,94.4066,0.442,/home/atmos7/PDS/JUNO/PDS4/JIRAM/juno_jiram_bundle/data_calibrated/orbit35/JIR_IMG_RDR_2021202T065026_V01.IMG
2021-07-21T06:50:54.77Z,urn:nasa:pds:juno_jiram:data_calibrated:jir_img_rdr_2021202t065057_v01,2021-07-21T06:50:54.766Z,2021-07-21T06:50:54.781Z,JUPITER,urn:nasa:pds:context:target:planet.jupiter,0.38302,147.8519,44.9038,269.4405,194900.3355,125838.1358,7.9563,26.8562,296.007,315.0792,30201.1526,30201.1526,147.6676,53.7418,94.098,11.9863,29.7425,298.307,317.9014,30176.5782,30176.5782,146.9287,52.7757,94.2438,0.442,/home/atmos7/PDS/JUNO/PDS4/JIRAM/juno_jiram_bundle/data_calibrated/orbit35/JIR_IMG_RDR_2021202T065057_V01.IMG
2021-07-21T06:51:25.16Z,urn:nasa:pds:juno_jiram:data_calibrated:jir_img_rdr_2021202t065127_v01,2021-07-21T06:51:25.158Z,2021-07-21T06:51:25.173Z,JUPITER,urn:nasa:pds:context:target:planet.jupiter,0.38303,147.5457,45.0932,269.0561,194051.0665,125004.1545,3.878,24.1302,293.109,311.5231,30000.9971,30000.9971,147.4978,54.9423,93.9253,9.0375,27.1993,295.132,313.6515,29976.4915,29976.4915,146.8193,52.9411,94.0763,0.442,/home/atmos7/PDS/JUNO/PDS4/JIRAM/juno_jiram_bundle/data_calibrated/orbit35/JIR_IMG_RDR_2021202T065127_V01.IMG
2021-07-21T06:51:55.56Z,urn:nasa:pds:juno_jiram:data_calibrated:jir_img_rdr_2021202t065157_v01,2021-07-21T06:51:55.551Z,2021-07-21T06:51:55.566Z,JUPITER,urn:nasa:pds:context:target:planet.jupiter,0.38303,147.2395,45.2843,268.6704,193200.9892,124169.4847,-2.5621,21.1814,290.452,308.8958,29800.6763,29800.6763,147.2555,57.2734,93.7474,5.1176,24.472,292.241,310.1156,29776.2423,29776.2423,146.6463,54.1756,93.9034,0.442,/home/atmos7/PDS/JUNO/PDS4/JIRAM/juno_jiram_bundle/data_calibrated/orbit35/JIR_IMG_RDR_2021202T065157_V01.IMG
2021-07-21T06:53:25.39Z,urn:nasa:pds:juno_jiram:data_calibrated:jir_img_rdr_2021202t065327_v01,2021-07-21T06:53:25.389Z,2021-07-21T06:53:25.404Z,JUPITER,urn:nasa:pds:context:target:planet.jupiter,0.38303,146.3343,45.8587,267.5231,190683.7391,121698.4814,22.885,37.7518,300.55,320.2169,29207.6355,29207.6355,141.2553,49.9963,94.4847,24.7746,40.0785,303.942,325.2969,29183.4297,29183.4297,140.5218,52.0053,94.6173,0.442,/home/atmos7/PDS/JUNO/PDS4/JIRAM/juno_jiram_bundle/data_calibrated/orbit35/JIR_IMG_RDR_2021202T065327_V01.IMG
2021-07-21T06:53:55.79Z,urn:nasa:pds:juno_jiram:data_calibrated:jir_img_rdr_2021202t065358_v01,2021-07-21T06:53:55.783Z,2021-07-21T06:53:55.798Z,JUPITER,urn:nasa:pds:context:target:planet.jupiter,0.38303,146.028,46.0563,267.1324,189830.5843,120861.2136,21.2205,35.5746,296.647,314.6955,29006.6913,29006.6913,141.2205,48.0495,94.3261,23.6014,38.0496,299.55,318.7216,28982.5683,28982.5683,140.5356,49.1125,94.4644,0.442,/home/atmos7/PDS/JUNO/PDS4/JIRAM/juno_jiram_bundle/data_calibrated/orbit35/JIR_IMG_RDR_2021202T065358_V01.IMG
2021-07-21T06:54:26.18Z,urn:nasa:pds:juno_jiram:data_calibrated:jir_img_rdr_2021202t065428_v01,2021-07-21T06:54:26.176Z,2021-07-21T06:54:26.191Z,JUPITER,urn:nasa:pds:context:target:planet.jupiter,0.38304,145.7218,46.2557,266.7403,188976.6966,120023.3353,19.127,33.2886,293.191,310.0698,28805.6005,28805.6005,141.1275,47.0971,94.163,21.9099,35.8894,295.713,313.3795,28781.5634,28781.5634,140.4826,47.2419,94.3067,0.442,/home/atmos7/PDS/JUNO/PDS4/JIRAM/juno_jiram_bundle/data_calibrated/orbit35/JIR_IMG_RDR_2021202T065428_V01.IMG
2021-07-21T06:54:56.58Z,urn:nasa:pds:juno_jiram:data_calibrated:jir_img_rdr_2021202t065458_v01,2021-07-21T06:54:56.570Z,2021-07-21T06:54:56.585Z,JUPITER,urn:nasa:pds:context:target:planet.jupiter,0.38304,145.4156,46.4568,266.3467,188122.0247,119184.7969,16.6017,30.8695,290.072,306.0788,28604.3513,28604.3513,140.999,47.1275,93.9911,19.7876,33.5949,292.287,308.8421,28580.4031,28580.4031,140.3892,46.3536,94.1401,0.442,/home/atmos7/PDS/JUNO/PDS4/JIRAM/juno_jiram_bundle/data_calibrated/orbit35/JIR_IMG_RDR_2021202T065458_V01.IMG
2021-07-21T06:55:26.97Z,urn:nasa:pds:juno_jiram:data_calibrated:jir_img_rdr_2021202t065529_v01,2021-07-21T06:55:26.966Z,2021-07-21T06:55:26.981Z,JUPITER,urn:nasa:pds:context:target:planet.jupiter,0.38304,145.1093,46.6597,265.9517,187266.5449,118345.576,13.5731,28.2887,287.208,302.573,28402.9382,28402.9382,140.8362,48.1494,93.812,17.2378,31.154,289.172,304.8851,28379.082,28379.082,140.2595,46.4455,93.9662,0.442,/home/atmos7/PDS/JUNO/PDS4/JIRAM/juno_jiram_bundle/data_calibrated/orbit35/JIR_IMG_RDR_2021202T065529_V01.IMG
2021-07-21T06:55:57.36Z,urn:nasa:pds:juno_jiram:data_calibrated:jir_img_rdr_2021202t065559_v01,2021-07-21T06:55:57.358Z,2021-07-21T06:55:57.373Z,JUPITER,urn:nasa:pds:context:target:planet.jupiter,0.38304,144.8031,46.8643,265.5552,186410.431,117505.8438,10.0514,25.6339,284.62,299.5562,28201.4025,28201.4025,140.62,50.0784,93.6318,14.3458,28.662,286.382,301.4804,28177.6413,28177.6413,140.0767,47.4592,93.7907,0.442,/home/atmos7/PDS/JUNO/PDS4/JIRAM/juno_jiram_bundle/data_calibrated/orbit35/JIR_IMG_RDR_2021202T065559_V01.IMG
2021-07-21T06:57:27.20Z,urn:nasa:pds:juno_jiram:data_calibrated:jir_img_rdr_2021202t065729_v01,2021-07-21T06:57:27.199Z,2021-07-21T06:57:27.214Z,JUPITER,urn:nasa:pds:context:target:planet.jupiter,0.38305,143.8979,47.48,264.3741,183875.381,115019.9561,29.0657,41.3168,294.251,311.4021,27604.7895,27604.7895,135.4356,44.0885,94.383,31.0646,43.608,297.445,315.7465,27581.3276,27581.3276,134.8393,45.9883,94.5193,0.442,/home/atmos7/PDS/JUNO/PDS4/JIRAM/juno_jiram_bundle/data_calibrated/orbit35/JIR_IMG_RDR_2021202T065729_V01.IMG
2021-07-21T06:57:57.60Z,urn:nasa:pds:juno_jiram:data_calibrated:jir_img_rdr_2021202t065759_v01,2021-07-21T06:57:57.594Z,2021-07-21T06:57:57.609Z,JUPITER,urn:nasa:pds:context:target:planet.jupiter,0.38305,143.5916,47.692,263.9712,183016.2822,114177.741,27.3363,39.2101,290.519,306.5042,27402.6578,27402.6578,135.3381,42.2335,94.2192,29.6291,41.6077,293.267,310.1256,27379.3037,27379.3037,134.7752,43.2905,94.361,0.442,/home/atmos7/PDS/JUNO/PDS4/JIRAM/juno_jiram_bundle/data_calibrated/orbit35/JIR_IMG_RDR_2021202T065759_V01.IMG
2021-07-21T06:58:27.99Z,urn:nasa:pds:juno_jiram:data_calibrated:jir_img_rdr_2021202t065830_v01,2021-07-21T06:58:27.988Z,2021-07-21T06:58:28.003Z,JUPITER,urn:nasa:pds:context:target:planet.jupiter,0.38305,143.2854,47.9059,263.5667,182156.4935,113334.9633,25.3513,37.0326,287.204,302.2738,27200.3912,27200.3912,135.2026,41.2939,94.0493,27.8997,39.5217,289.603,305.3501,27177.1481,27177.1481,134.6667,41.5047,94.1965,0.442,/home/atmos7/PDS/JUNO/PDS4/JIRAM/juno_jiram_bundle/data_calibrated/orbit35/JIR_IMG_RDR_2021202T065830_V01.IMG
2021-07-21T06:58:58.39Z,urn:nasa:pds:juno_jiram:data_calibrated:jir_img_rdr_2021202t065900_v01,2021-07-21T06:58:58.383Z,2021-07-21T06:58:58.398Z,JUPITER,urn:nasa:pds:context:target:planet.jupiter,0.38305,142.9791,48.1217,263.1604,181295.9643,112491.5742,23.0976,34.7582,284.187,298.5219,26997.9778,26997.9778,135.0366,41.2569,93.8741,25.903,37.3397,286.305,301.1639,26974.849,26974.849,134.5235,40.6093,94.0264,0.442,/home/atmos7/PDS/JUNO/PDS4/JIRAM/juno_jiram_bundle/data_calibrated/orbit35/JIR_IMG_RDR_2021202T065900_V01.IMG
2021-07-21T06:59:28.78Z,urn:nasa:pds:juno_jiram:data_calibrated:jir_img_rdr_2021202t065931_v01,2021-07-21T06:59:28.779Z,2021-07-21T06:59:28.794Z,JUPITER,urn:nasa:pds:context:target:planet.jupiter,0.38305,142.6729,48.3396,262.7523,180434.702,111647.5813,20.5422,32.3712,281.418,295.1661,26795.4195,26795.4195,134.8522,42.1401,93.6902,23.6375,35.057,283.308,297.4503,26772.4085,26772.4085,134.3592,40.6334,93.8475,0.442,/home/atmos7/PDS/JUNO/PDS4/JIRAM/juno_jiram_bundle/data_calibrated/orbit35/JIR_IMG_RDR_2021202T065931_V01.IMG
2021-07-21T06:59:59.18Z,urn:nasa:pds:juno_jiram:data_calibrated:jir_img_rdr_2021202t070001_v01,2021-07-21T06:59:59.174Z,2021-07-21T06:59:59.189Z,JUPITER,urn:nasa:pds:context:target:planet.jupiter,0.38305,142.3666,48.5594,262.3423,179572.7698,110803.0473,17.6839,29.898,278.873,292.1672,26592.7314,26592.7314,134.6387,43.8872,93.503,21.1331,32.708,280.577,294.15,26569.8415,26569.8415,134.164,41.5443,93.665,0.442,/home/atmos7/PDS/JUNO/PDS4/JIRAM/juno_jiram_bundle/data_calibrated/orbit35/JIR_IMG_RDR_2021202T070001_V01.IMG